This demonstration page uses our WeatherBlox Daily Observations layout. Learn more.

Left ArrowRight Arrow

Hourly Observations for November 5, 2015

Temp ( °F °C ) Dew Point ( °F °C ) Humidity (%) Winds ( mph kmh ) Pressure ( in mb ) Visibility ( mi km ) Precip ( " mm )
12:53 am 00:53 Clear with Mist and Fog 55 12.8 54 12.2 96 96 Calm 30.15 1021 6 10 0.00 0.00
1:47 am 01:47 Mostly Cloudy with Mist and Fog 54 12 54 12 100 100 Calm 30.15 1021 2 3 0.00 0.00
1:53 am 01:53 Mostly Cloudy with Mist and Fog 55 12.8 53 11.7 93 93 Calm 30.16 1021 2 2 0.00 0.00
1:57 am 01:57 Cloudy with Mist and Fog 55 12.8 54 12.2 96 96 ESE 3 6 30.18 1022 3 4 0.00 0.00
2:04 am 02:04 Cloudy with Mist and Fog 55 12.8 53 11.7 93 93 ESE 3 6 30.18 1022 5 8 0.00 0.00
2:53 am 02:53 Cloudy 57 13.9 56 13.3 96 96 Calm 30.16 1022 8 13 0.00 0.00
3:53 am 03:53 Cloudy 58 14.4 56 13.3 93 93 Calm 30.15 1021 10 16 0.00 0.00
4:53 am 04:53 Cloudy 60 15.6 58 14.4 93 93 Calm 30.16 1021 8 13 0.00 0.00
5:53 am 05:53 Cloudy 60 15.6 58 14.4 93 93 E 3 6 30.17 1022 8 13 0.00 0.00
6:53 am 06:53 Cloudy 62 16.7 60 15.6 93 93 E 5 7 30.17 1022 8 13 0.00 0.00
7:53 am 07:53 Cloudy 62 16.7 60 15.6 93 93 E 3 6 30.19 1022 7 11 0.00 0.00
8:53 am 08:53 Cloudy 65 18.3 62 16.7 90 90 Calm 30.20 1023 8 13 0.00 0.00
9:53 am 09:53 Cloudy 68 20 61 16.1 78 78 S 3 6 30.19 1022 10 16 0.00 0.00
10:53 am 10:53 Cloudy 71 21.7 62 16.7 73 73 VRB 3 6 30.18 1022 10 16 0.00 0.00
11:53 am 11:53 Cloudy 72 22.2 62 16.7 71 71 VRB 5 7 30.15 1021 10 16 0.00 0.00
12:53 pm 12:53 Cloudy 73 22.8 62 16.7 69 69 SW 5 7 30.13 1020 10 16 0.00 0.00
1:53 pm 13:53 Cloudy 75 23.9 59 15 58 58 SSW 7 11 30.11 1020 10 16 0.00 0.00
2:53 pm 14:53 Mostly Cloudy 75 23.9 57 13.9 54 54 SSW 9 15 30.09 1019 10 16 0.00 0.00
3:53 pm 15:53 Partly Cloudy 74 23.3 57 13.9 56 56 SSW 7 11 30.07 1018 10 16 0.00 0.00
4:53 pm 16:53 Mostly Cloudy 75 23.9 57 13.9 54 54 VRB 5 7 30.06 1018 10 16 0.00 0.00
5:53 pm 17:53 Clear 72 22.2 57 13.9 59 59 VRB 3 6 30.05 1018 10 16 0.00 0.00
6:53 pm 18:53 Mostly Clear 71 21.7 57 13.9 61 61 Calm 30.05 1018 10 16 0.00 0.00
7:53 pm 19:53 Mostly Cloudy with Light Rain 70 21.1 57 13.9 64 64 SSE 5 7 30.02 1017 10 16 0.00 0.03
8:53 pm 20:53 Clear 69 20.6 58 14.4 68 68 VRB 5 7 30.02 1017 10 16 0.00 0.03
9:53 pm 21:53 Mostly Clear 70 21.1 59 15 68 68 SSE 5 7 29.98 1015 10 16 0.00 0.00
10:53 pm 22:53 Mostly Cloudy 70 21.1 59 15 68 68 S 5 7 29.98 1015 10 16 0.00 0.00
11:53 pm 23:53 Cloudy with Light Rain 69 20.6 60 15.6 73 73 VRB 3 6 29.96 1015 9 14 0.00 0.03

Powered by AerisWeather